Location: New Canada
(47.1017°N, 68.5042°W)
Time: 08:42:55
(UTC+00:00)

N. Korean satellite - Visible Passes

Search period start: 28 November 2022 00:00
Search period end: 08 December 2022 00:00
Orbit: 422 x 454 km, 97.3° (Epoch: 27 November)

Date Brightness Start Highest point End Pass type
(mag) Time Alt. Az. Time Alt. Az. Time Alt. Az.
28 Nov 9.6 08:58:37 10° NE 09:00:39 15° E 09:02:41 10° SE visible
28 Nov 6.9 10:30:09 10° N 10:33:21 37° WNW 10:36:31 10° SW visible
29 Nov 6.7 09:51:20 10° NNE 09:54:46 67° ESE 09:58:09 10° S visible
29 Nov 9.6 21:57:06 10° SW 21:59:22 17° W 22:01:39 10° NW visible
30 Nov 9.0 09:13:11 10° NE 09:15:56 22° E 09:18:37 10° SSE visible
30 Nov 7.4 10:45:32 10° NNW 10:48:25 25° WNW 10:51:15 10° SW visible
30 Nov 7.5 21:17:11 10° S 21:20:27 49° W 21:23:47 10° NNW visible
01 Dec 6.2 10:06:24 10° N 10:09:51 76° WNW 10:13:14 10° SSW visible
01 Dec 10.0 22:13:24 10° WSW 22:14:33 11° W 22:15:43 10° WNW visible
02 Dec 8.2 09:27:54 10° NNE 09:31:02 32° E 09:34:07 10° SSE visible
02 Dec 7.9 11:00:58 10° NNW 11:03:19 18° WNW 11:05:39 10° WSW visible
02 Dec 8.5 21:32:26 10° SSW 21:35:30 32° W 21:38:36 10° NNW visible
03 Dec 9.9 08:50:42 10° ENE 08:51:58 12° E 08:53:14 10° ESE visible
03 Dec 6.6 10:21:28 10° N 10:24:46 48° WNW 10:28:02 10° SSW visible
04 Dec 7.3 09:42:38 10° NNE 09:45:59 50° E 09:49:16 10° S visible
04 Dec 8.3 11:16:36 10° NW 11:18:04 12° WNW 11:19:32 10° W visible
04 Dec 9.3 21:47:47 10° SSW 21:50:27 21° W 21:53:09 10° NW visible
05 Dec 9.3 09:04:37 10° NE 09:06:57 17° E 09:09:15 10° SE visible
05 Dec 7.1 10:36:29 10° N 10:39:33 31° WNW 10:42:35 10° SW visible
06 Dec 6.4 09:57:22 10° NNE 10:00:47 80° ESE 10:04:08 10° S visible
06 Dec 9.7 22:03:20 10° SW 22:05:19 15° W 22:07:20 10° NW visible
07 Dec 8.7 09:18:54 10° NE 09:21:46 25° E 09:24:35 10° SSE visible
07 Dec 7.6 10:51:30 10° NNW 10:54:10 22° WNW 10:56:49 10° WSW visible
07 Dec 7.9 21:22:56 10° S 21:26:11 42° W 21:29:27 10° NNW visible
